Regional Weather Roundup
Issued by NWS Sioux Falls, SD

Home | Current Version | Previous Version | Graphics & Text | Print | Product List | Glossary On
Versions: 1 2 3 4 5 6 7 8 9 10 11 12 13 14 15 16 17 18 19 20 21 22 23 24 25 26 27 28 29 30 31 32 33 34 35 36 37 38 39 40 41 42 43 44 45 46 47 48 49 50
000
ASUS43 KFSD 061102
RWRFSD

WEATHER ROUNDUP FOR SE SOUTH DAKOTA/SW MINNESOTA/NW IOWA
NATIONAL WEATHER SERVICE SIOUX FALLS SD
600 AM CDT WED MAY 06 2015

NOTE: "FAIR" INDICATES FEW OR NO CLOUDS BELOW 12,000 FEET WITH NO
SIGNIFICANT WEATHER AND OR OBSTRUCTIONS TO VISIBILITY.


SDZ038>040-050-052>070-061200-
SOUTHEAST SOUTH DAKOTA

CITY           SKY/WX    TMP DP  RH WIND       PRES   REMARKS
BROOKINGS      CLOUDY    61  59  94 SE18      29.93S
CHAMBERLAIN    NOT AVBL
HURON          CLOUDY    62  59  90 SE10G21   29.84F
MADISON        CLOUDY    59  59 100 SE14G21   29.90F
MITCHELL       CLOUDY    63  59  87 SE16      29.85S
SIOUX FALLS    CLOUDY    63  58  83 SE12      29.90S
WINNER         CLOUDY    61  55  81 SE15      29.78S
YANKTON        MOCLDY    63  57  82 SE9       29.86S
$$

MNZ071-072-080-081-089-090-097-098-061200-
SOUTHWEST MINNESOTA

CITY           SKY/WX    TMP DP  RH WIND       PRES   REMARKS
FAIRMONT       CLOUDY    57  54  88 SE14      30.00F
JACKSON        FOG       59  57  94 SE10      30.00S VSB 1/2
LUVERNE        CLOUDY    63  59  88 SE13      29.93F FOG
MARSHALL       CLOUDY    57  52  82 SE12      29.97S
MONTEVIDEO     CLOUDY    55  55 100 S15       29.98F FOG
REDWOOD FALLS  FOG       56  55  97 SE13      30.00S VSB 1/2
TRACY          CLOUDY    58  58  98 SE10      29.98S FOG
WORTHINGTON    CLOUDY    61  57  88 SE14      29.97F
$$

IAZ001>003-012>014-020>022-031-032-NEZ013-014-SDZ071-061200-
NORTHWEST IOWA

CITY           SKY/WX    TMP DP  RH WIND       PRES   REMARKS
DENISON        CLOUDY    61  61 100 E9        29.92S
ESTHERVILLE    FOG       59  59 100 SE14      29.99F VSB 3/4
SIOUX CITY     CLOUDY    63  59  87 SE12      29.89F
SPENCER        CLOUDY    62  61  96 SE13      29.97F FOG
$$

ABBREVIATIONS USED IN REMARKS
   TC - TEMPERATURE IN CELSIUS
  WCI - WIND CHILL INDEX
   HX - HEAT INDEX
  VSB - VISIBILITY



USA.gov is the U.S. government's official web portal to all federal, state and local government web resources and services.